Tracking 19146 objects as of 24-Apr-2018
HD Live streaming from Space Station
objects crossing your sky now

FLOCK 3P 9

Track FLOCK 3P 9 now!
10-day predictions
FLOCK 3P 9 is classified as:


NORAD ID: 41973
Int'l Code: 2017-008AB
Perigee: 494.5 km
Apogee: 506.2 km
Inclination: 97.5 °
Period: 94.5 minutes
Semi major axis: 6871 km
RCS: Unknown
Launch date: February 15, 2017
Source: United States (US)
Launch site: SRIHARIKOTA (SRI)
aabbcc
Your satellite tracking list
Your tracking list is empty




NASA's NSSDC Master Catalog

Two Line Element Set (TLE):
1 41973U 17008AB  18113.66633936  .00002004  00000-0  85186-4 0  9994
2 41973  97.4546 178.8342 0008526 171.1859 188.9530 15.24195930 65720
Source of the keplerian elements: AFSPC